TimeEDT,TemperatureF,Dew PointF,Humidity,Sea Level PressureIn,VisibilityMPH,Wind Direction,Wind SpeedMPH,Gust SpeedMPH,PrecipitationIn,Events,Conditions,WindDirDegrees,DateUTC
12:53 AM,73.0,63.0,71,30.12,10.0,SW,4.6,-,N/A,,Overcast,220,2013-07-14 04:53:00
1:53 AM,73.0,61.0,66,30.12,10.0,South,6.9,-,N/A,,Overcast,190,2013-07-14 05:53:00
2:53 AM,72.0,61.0,68,30.13,10.0,SW,4.6,-,N/A,,Overcast,220,2013-07-14 06:53:00
3:53 AM,69.1,64.0,84,30.14,10.0,South,4.6,-,0.01,Rain,Light Rain,180,2013-07-14 07:53:00
4:53 AM,69.1,62.1,78,30.13,10.0,SW,6.9,-,N/A,,Overcast,220,2013-07-14 08:53:00
5:53 AM,66.9,62.1,84,30.13,10.0,SSW,5.8,-,N/A,,Overcast,210,2013-07-14 09:53:00
6:53 AM,68.0,62.1,81,30.15,10.0,SW,3.5,-,N/A,,Overcast,220,2013-07-14 10:53:00
7:53 AM,68.0,63.0,84,30.15,10.0,West,4.6,-,N/A,,Overcast,260,2013-07-14 11:53:00
8:53 AM,69.1,64.0,84,30.16,10.0,Calm,Calm,-,N/A,,Overcast,0,2013-07-14 12:53:00
9:53 AM,70.0,64.0,81,30.16,10.0,Calm,Calm,-,N/A,,Mostly Cloudy,0,2013-07-14 13:53:00
10:53 AM,71.1,64.9,81,30.17,10.0,South,3.5,-,N/A,,Mostly Cloudy,190,2013-07-14 14:53:00
11:53 AM,72.0,64.9,78,30.18,10.0,Calm,Calm,-,N/A,,Overcast,0,2013-07-14 15:53:00
12:53 PM,73.0,64.9,76,30.18,10.0,SSW,4.6,-,N/A,,Mostly Cloudy,210,2013-07-14 16:53:00
1:53 PM,75.9,64.0,67,30.19,10.0,SW,6.9,-,N/A,,Clear,220,2013-07-14 17:53:00
2:53 PM,78.1,62.1,58,30.18,10.0,West,16.1,21.9,N/A,,Clear,270,2013-07-14 18:53:00
3:53 PM,79.0,62.1,56,30.18,10.0,West,16.1,-,N/A,,Clear,280,2013-07-14 19:53:00
4:53 PM,82.0,59.0,45,30.17,10.0,West,11.5,20.7,N/A,,Clear,280,2013-07-14 20:53:00
5:53 PM,79.0,57.0,47,30.17,10.0,WNW,10.4,-,N/A,,Clear,300,2013-07-14 21:53:00
6:53 PM,80.1,63.0,56,30.16,10.0,WNW,3.5,-,N/A,,Clear,290,2013-07-14 22:53:00
7:53 PM,75.0,64.0,69,30.18,10.0,East,5.8,-,N/A,,Clear,90,2013-07-14 23:53:00
8:53 PM,73.0,64.9,76,30.20,10.0,Calm,Calm,-,N/A,,Clear,0,2013-07-15 00:53:00
9:53 PM,66.9,64.0,90,30.20,10.0,NNE,3.5,-,N/A,,Clear,20,2013-07-15 01:53:00
10:53 PM,66.0,63.0,90,30.21,10.0,NE,3.5,-,N/A,,Scattered Clouds,40,2013-07-15 02:53:00
11:53 PM,66.0,61.0,84,30.22,10.0,Calm,Calm,-,N/A,,Clear,0,2013-07-15 03:53:00